Stations météo

réclame
Mon MeteoGroup
Camborne, Grande-Bretagne (3808): Température de l'air & dewpoint: 13.03.2019 02:00:00 - 19.03.2019 02:00:00 (GMT)Camborne, Grande-Bretagne (3808): Température de l'air -20cm & Température de l'air -100cm: 13.03.2019 02:00:00 - 19.03.2019 02:00:00 (GMT)Camborne, Grande-Bretagne (3808): Vitesse du vent & gusts: 13.03.2019 02:00:00 - 19.03.2019 02:00:00 (GMT)Camborne, Grande-Bretagne (3808): Direction du vent: 13.03.2019 02:00:00 - 19.03.2019 02:00:00 (GMT)Camborne, Grande-Bretagne (3808): reduced air pressure: 13.03.2019 02:00:00 - 19.03.2019 02:00:00 (GMT)Camborne, Grande-Bretagne (3808): visibility: 13.03.2019 02:00:00 - 19.03.2019 02:00:00 (GMT)Camborne, Grande-Bretagne (3808): Ensoleillement: 13.03.2019 02:00:00 - 19.03.2019 02:00:00 (GMT)Camborne, Grande-Bretagne (3808): Quantités de précipitations: 13.03.2019 02:00:00 - 19.03.2019 02:00:00 (GMT)
Date & Time tt [°C] td [°C] tt -20cm [°C] tt -100cm [°C] ff [km/h] ff [knt] fx [km/h] fx [knt] dd ppp [hPa] vv [km] sd [min] rr [mm]
19.03.2019 02:00:00 8,8 8,2 - - 8 4 - - WNW 1027,2 14 0 -
19.03.2019 01:00:00 8,8 8,2 - - 13 7 - - WNW 1027,1 15 0 0,2
19.03.2019 00:00:00 8,8 8,2 - - 11 6 - - WNW 1026,8 12 - 0,0
18.03.2019 23:00:00 8,5 7,8 - - 15 8 - - WNW 1026,6 15 0 0,0
18.03.2019 22:00:00 8,6 7,6 - - 11 6 - - WNW 1026,8 15 0 0,0
18.03.2019 21:00:00 8,3 7,3 - - 11 6 - - WNW 1026,5 18 0 0,0
18.03.2019 20:00:00 8,4 7,4 - - 13 7 - - WNW 1026,1 18 0 0,0
18.03.2019 19:00:00 8,5 7,2 - - 15 8 - - WNW 1025,7 15 0 0,0
18.03.2019 18:00:00 8,5 7,1 - - 15 8 - - WNW 1025,3 15 0 0,0
18.03.2019 17:00:00 8,8 7,4 - - 18 10 - - WNW 1024,9 15 0 0,0
18.03.2019 16:00:00 8,8 7,5 - - 22 12 - - WNW 1024,7 12 0 0,2
18.03.2019 15:00:00 8,8 7,7 - - 22 12 - - WNW 1024,5 12 0 0,2
18.03.2019 14:00:00 9,2 7,2 - - 22 12 - - W 1024,5 12 0 0,0
18.03.2019 13:00:00 8,8 6,5 - - 22 12 - - W 1024,8 25 0 0,0
18.03.2019 12:00:00 8,1 6,3 - - 21 11 - - W 1025,0 22 0 0,0
18.03.2019 11:00:00 7,6 5,7 - - 16 9 - - W 1025,4 12 0 0,2
18.03.2019 10:00:00 6,9 4,7 - - 18 10 - - WNW 1025,0 15 0 0,2
18.03.2019 09:00:00 7,0 4,6 10,2 10,0 18 10 - - WNW 1024,7 18 0 0,0
18.03.2019 08:00:00 7,0 4,3 - - 18 10 - - NW 1024,2 22 0 0,2
18.03.2019 07:00:00 6,5 3,9 - - 15 8 - - W 1023,7 24 0 0,2
18.03.2019 06:00:00 7,8 2,9 - - 18 10 - - WNW 1023,5 26 0 0,0
18.03.2019 05:00:00 7,7 3,5 - - 16 9 - - WNW 1023,0 24 0 0,0
18.03.2019 04:00:00 7,7 3,7 - - 22 12 - - NW 1022,8 24 0 0,0
18.03.2019 03:00:00 8,0 3,1 - - 22 12 - - NW 1022,7 28 0 0,0
18.03.2019 02:00:00 8,2 3,7 - - 24 13 - - NW 1022,7 22 0 0,0
18.03.2019 01:00:00 8,3 3,7 - - 26 14 - - NW 1022,4 22 0 0,0
18.03.2019 00:00:00 8,2 4,2 - - 28 15 48 26 NW 1022,0 20 - 0,0
17.03.2019 23:00:00 8,1 4,3 - - 31 17 48 26 NW 1021,3 20 0 0,0
17.03.2019 22:00:00 8,3 4,5 - - 28 15 50 27 NW 1020,5 20 0 0,0
17.03.2019 21:00:00 8,6 4,4 - - 28 15 50 27 NW 1019,9 22 0 0,0
17.03.2019 20:00:00 8,8 3,9 - - 34 18 52 28 NW 1018,9 24 0 0,0
17.03.2019 19:00:00 8,8 3,5 - - 35 19 55 30 WNW 1017,9 25 6 0,0
17.03.2019 18:00:00 8,7 2,9 - - 31 17 50 27 WNW 1016,6 25 18 0,0
17.03.2019 17:00:00 9,2 3,1 - - 34 18 54 29 WNW 1016,2 30 54 0,0
17.03.2019 16:00:00 9,1 2,3 - - 34 18 52 28 WNW 1015,4 35 42 0,0
17.03.2019 15:00:00 9,1 2,7 - - 34 18 50 27 WNW 1015,0 40 54 0,0
17.03.2019 14:00:00 8,8 2,2 - - 29 16 - - WNW 1014,1 40 48 0,0
17.03.2019 13:00:00 8,1 2,1 - - 28 15 - - NW 1013,5 40 42 0,0
17.03.2019 12:00:00 7,8 2,9 - - 26 14 - - NW 1012,2 40 42 0,0
17.03.2019 11:00:00 6,2 3,7 - - 9 5 - - NW 1011,0 15 18 0,8
17.03.2019 10:00:00 5,3 2,6 - - 15 8 57 31 NNW 1010,4 25 6 0,4
17.03.2019 09:00:00 5,2 1,7 10,5 10,0 16 9 48 26 WSW 1009,7 20 6 0,0
17.03.2019 08:00:00 6,1 0,1 - - 35 19 54 29 W 1009,0 15 24 0,0
17.03.2019 07:00:00 6,2 -0,9 - - 22 12 50 27 WNW 1008,1 20 0 0,0
17.03.2019 06:00:00 6,0 -1,5 - - 24 13 46 25 WNW 1007,2 18 0 0,0
17.03.2019 05:00:00 5,1 -0,5 - - 34 18 55 30 WNW 1006,9 22 0 0,2
17.03.2019 04:00:00 5,9 -1,0 - - 29 16 48 26 WNW 1005,8 22 0 0,0
17.03.2019 03:00:00 6,3 -0,3 - - 24 13 54 29 WNW 1005,2 35 0 0,0
17.03.2019 02:00:00 6,5 -0,8 - - 31 17 54 29 WNW 1005,0 24 0 0,0
17.03.2019 01:00:00 6,9 -1,1 - - 34 18 52 28 WNW 1004,3 24 0 0,0
17.03.2019 00:00:00 7,0 0,3 - - 29 16 52 28 WNW 1003,7 24 - 0,0
16.03.2019 23:00:00 7,3 1,4 - - 29 16 52 28 WNW 1003,0 20 0 0,0
16.03.2019 22:00:00 7,6 3,0 - - 31 17 52 28 WNW 1002,2 18 0 0,0
16.03.2019 21:00:00 7,8 4,1 - - 29 16 46 25 WNW 1001,4 14 0 0,0
16.03.2019 20:00:00 7,1 4,4 - - 24 13 - - WNW 1000,6 12 0 0,2
16.03.2019 19:00:00 7,5 6,5 - - 26 14 46 25 WNW 1000,0 10 0 1,6
16.03.2019 18:00:00 8,0 7,0 - - 29 16 55 30 W 999,5 6 0 2,2
16.03.2019 17:00:00 9,7 9,1 - - 44 24 70 38 WSW 999,0 3,0 0 3,0
16.03.2019 16:00:00 9,7 9,0 - - 46 25 70 38 SW 999,1 2,1 0 0,8
16.03.2019 15:00:00 9,9 8,3 - - 52 28 81 44 SW 1000,2 2,0 0 0,0
16.03.2019 14:00:00 10,6 7,2 - - 50 27 76 41 SSW 1001,5 5 0 0,0
16.03.2019 13:00:00 10,7 7,0 - - 52 28 78 42 SSW 1002,8 15 0 0,0
16.03.2019 12:00:00 11,0 6,8 - - 54 29 78 42 SW 1004,1 15 6 0,0
16.03.2019 11:00:00 10,6 6,7 - - 44 24 74 40 SW 1005,3 15 0 0,0
16.03.2019 10:00:00 10,0 7,0 - - 42 23 65 35 SW 1006,4 7 0 0,0
16.03.2019 09:00:00 10,4 6,8 11,0 10,0 42 23 65 35 SW 1006,7 13 0 0,0
16.03.2019 08:00:00 10,2 7,3 - - 44 24 68 37 SW 1007,5 20 0 0,0
16.03.2019 07:00:00 9,8 7,4 - - 41 22 70 38 SW 1007,9 20 0 0,0
16.03.2019 06:00:00 9,8 7,5 - - 41 22 67 36 WSW 1008,8 25 0 0,0
16.03.2019 05:00:00 10,1 7,3 - - 39 21 57 31 SW 1009,7 15 0 0,0
16.03.2019 04:00:00 10,3 7,0 - - 41 22 61 33 SW 1010,3 15 0 0,0
16.03.2019 03:00:00 10,4 8,0 - - 39 21 59 32 WSW 1011,3 16 0 0,0
16.03.2019 02:00:00 10,3 8,1 - - 41 22 61 33 WSW 1011,9 15 0 0,0
16.03.2019 01:00:00 10,3 8,3 - - 39 21 59 32 WSW 1012,6 18 0 0,0
16.03.2019 00:00:00 10,3 8,4 - - 41 22 59 32 SW 1013,3 18 - 0,0
15.03.2019 23:00:00 10,5 8,0 - - 35 19 61 33 WSW 1014,1 20 0 0,0
15.03.2019 22:00:00 10,3 8,0 - - 37 20 59 32 WSW 1014,6 20 0 0,0
15.03.2019 21:00:00 10,5 8,3 - - 37 20 55 30 WSW 1015,0 15 0 0,0
15.03.2019 20:00:00 10,6 8,6 - - 34 18 55 30 WSW 1015,3 15 0 0,0
15.03.2019 19:00:00 10,8 8,9 - - 39 21 57 31 WSW 1015,3 16 0 0,0
15.03.2019 18:00:00 10,9 9,0 - - 31 17 63 34 WSW 1015,4 14 0 0,0
15.03.2019 17:00:00 10,9 9,3 - - 35 19 55 30 WSW 1015,2 14 0 0,0
15.03.2019 16:00:00 11,1 9,3 - - 35 19 61 33 WSW 1015,5 14 0 0,0
15.03.2019 15:00:00 11,6 9,3 - - 37 20 67 36 WSW 1015,6 16 0 0,0
15.03.2019 14:00:00 11,4 9,1 - - 46 25 74 40 WSW 1015,6 16 0 0,0
15.03.2019 13:00:00 11,4 9,2 - - 44 24 74 40 W 1015,8 16 0 0,0
15.03.2019 12:00:00 11,7 9,1 - - 48 26 67 36 WSW 1015,4 14 0 0,0
15.03.2019 11:00:00 11,4 9,4 - - 48 26 68 37 WSW 1015,6 10 0 0,0
15.03.2019 10:00:00 10,8 10,1 - - 39 21 65 35 W 1015,4 4,6 0 0,0
15.03.2019 09:00:00 11,0 9,9 10,7 9,9 39 21 65 35 W 1015,1 4,0 0 0,0
15.03.2019 08:00:00 10,9 9,8 - - 42 23 67 36 W 1014,7 6 0 0,0
15.03.2019 07:00:00 11,0 9,5 - - 42 23 67 36 WSW 1014,5 6 0 0,0
15.03.2019 06:00:00 10,8 9,6 - - 42 23 61 33 W 1014,4 6 0 0,0
15.03.2019 05:00:00 10,6 9,8 - - 39 21 61 33 W 1014,6 4,8 0 0,0
15.03.2019 04:00:00 10,8 9,5 - - 37 20 65 35 W 1014,5 12 0 0,0
15.03.2019 03:00:00 10,8 9,3 - - 41 22 67 36 W 1014,8 7 0 0,0
15.03.2019 02:00:00 10,9 9,1 - - 41 22 70 38 W 1015,2 10 0 0,0
15.03.2019 01:00:00 10,9 9,4 - - 42 23 76 41 W 1015,2 10 0 0,0
15.03.2019 00:00:00 10,9 9,6 - - 44 24 72 39 W 1015,3 9 - 0,0
14.03.2019 23:00:00 10,8 9,5 - - 39 21 59 32 W 1015,4 10 0 0,0
14.03.2019 22:00:00 10,7 9,8 - - 42 23 63 34 W 1015,3 6 0 0,0
14.03.2019 21:00:00 10,7 9,6 - - 39 21 59 32 W 1015,2 10 0 0,0
14.03.2019 20:00:00 10,6 10,1 - - 39 21 61 33 W 1014,9 8 0 0,2
14.03.2019 19:00:00 10,4 10,2 - - 35 19 57 31 W 1015,0 1,4 0 0,0
14.03.2019 18:00:00 10,4 10,3 - - 37 20 54 29 W 1014,9 1,0 0 0,0
14.03.2019 17:00:00 10,5 10,3 - - 35 19 57 31 W 1014,6 2,9 0 0,0
14.03.2019 16:00:00 10,5 10,3 - - 35 19 61 33 W 1014,4 1,0 0 0,0
14.03.2019 15:00:00 10,5 10,3 - - 37 20 55 30 W 1014,3 1,0 0 0,0
14.03.2019 14:00:00 10,6 10,3 - - 37 20 59 32 W 1014,1 1,8 0 0,0
14.03.2019 13:00:00 10,6 10,2 - - 39 21 63 34 W 1014,0 1,8 0 0,0
14.03.2019 12:00:00 10,6 10,2 - - 41 22 68 37 W 1013,6 1,4 0 0,0
14.03.2019 11:00:00 10,5 10,0 - - 48 26 74 40 W 1013,2 2,0 0 0,0
14.03.2019 10:00:00 10,2 9,7 - - 48 26 74 40 W 1013,0 2,0 0 0,0
14.03.2019 09:00:00 9,9 9,3 10,4 9,9 48 26 76 41 W 1012,9 3,0 0 0,0
14.03.2019 08:00:00 9,8 8,8 - - 48 26 74 40 W 1012,8 3,0 0 0,0
14.03.2019 07:00:00 9,7 8,2 - - 48 26 72 39 W 1013,4 3,0 0 0,0
14.03.2019 06:00:00 9,8 7,3 - - 46 25 74 40 W 1013,8 10 0 0,0
14.03.2019 05:00:00 9,8 6,7 - - 46 25 68 37 W 1014,4 14 0 0,0
14.03.2019 04:00:00 9,5 6,6 - - 46 25 70 38 W 1015,5 18 0 0,0
14.03.2019 03:00:00 9,5 6,4 - - 42 23 65 35 W 1016,8 19 0 0,0
14.03.2019 02:00:00 9,3 6,4 - - 35 19 59 32 W 1017,9 19 0 0,2
14.03.2019 01:00:00 9,2 6,0 - - 41 22 65 35 W 1018,6 18 0 0,0
14.03.2019 00:00:00 8,9 6,9 - - 37 20 59 32 W 1019,6 12 - 0,0
13.03.2019 23:00:00 8,6 7,0 - - 39 21 65 35 W 1020,3 15 0 0,0
13.03.2019 22:00:00 8,7 5,4 - - 31 17 57 31 W 1020,6 15 0 0,0
13.03.2019 21:00:00 8,6 6,3 - - 31 17 50 27 W 1021,0 12 0 0,0
13.03.2019 20:00:00 8,8 5,1 - - 34 18 57 31 WNW 1021,3 10 0 0,0
13.03.2019 19:00:00 8,8 5,1 - - 35 19 55 30 WNW 1021,4 8 0 0,0
13.03.2019 18:00:00 8,9 4,4 - - 34 18 52 28 WNW 1021,2 8 0 0,0
13.03.2019 17:00:00 9,0 5,1 - - 35 19 59 32 WNW 1020,6 8 12 0,0
13.03.2019 16:00:00 9,7 4,6 - - 35 19 61 33 WNW 1020,3 21 60 0,0
13.03.2019 15:00:00 9,8 3,9 - - 37 20 57 31 NW 1020,3 25 60 0,0
13.03.2019 14:00:00 9,5 3,8 - - 29 16 59 32 WNW 1020,1 15 60 0,0
13.03.2019 13:00:00 9,2 3,6 - - 41 22 68 37 WNW 1020,1 15 54 0,0
13.03.2019 12:00:00 9,6 3,5 - - 41 22 63 34 NW 1019,5 15 60 0,0
13.03.2019 11:00:00 9,2 2,8 - - 35 19 70 38 WNW 1019,0 15 60 0,0
13.03.2019 10:00:00 8,7 0,9 - - 39 21 65 35 NW 1018,8 15 54 0,0
13.03.2019 09:00:00 8,5 1,4 10,2 10,0 31 17 54 29 WNW 1017,7 20 36 0,0
13.03.2019 08:00:00 8,0 1,9 - - 29 16 55 30 WNW 1017,4 20 0 0,0
13.03.2019 07:00:00 7,9 2,4 - - 35 19 55 30 WNW 1016,6 17 0 0,0
13.03.2019 06:00:00 7,7 2,3 - - 35 19 59 32 WNW 1015,4 14 0 0,0
13.03.2019 05:00:00 7,9 1,8 - - 39 21 65 35 WNW 1014,4 18 0 0,0
13.03.2019 04:00:00 7,7 1,3 - - 41 22 67 36 WNW 1013,7 19 0 0,0
13.03.2019 03:00:00 7,8 1,8 - - 39 21 68 37 WNW 1013,6 17 0 0,0
13.03.2019 02:00:00 7,7 1,4 - - 41 22 67 36 WNW 1013,1 17 0 0,0

tt = Température de l'air
td = dewpoint
tt -20cm = Température de l'air -20cm
tt -100cm = Température de l'air -100cm
ff = Vitesse du vent
fx = gusts
dd = Direction du vent
ppp = reduced air pressure
vv = visibility
sd = Ensoleillement
rr = Quantités de précipitations

stations d'obs. à proximité